Regional Weather Roundup
Issued by NWS Jackson, KY

Home | Current Version | Previous Version | Graphics & Text | Print | Product List | Glossary On
Versions: 1 2 3 4 5 6 7 8 9 10 11 12 13 14 15 16 17 18 19 20 21 22 23 24 25 26 27
000
ASUS43 KJKL 250210
RWRJKL

EAST KENTUCKY HOURLY WEATHER ROUNDUP
NATIONAL WEATHER SERVICE JACKSON KY
1000 PM EDT TUE MAY 24 2016

NOTE: "FAIR" INDICATES FEW OR NO CLOUDS BELOW 12,000 FEET WITH
NO SIGNIFICANT WEATHER AND/OR OBSTRUCTIONS TO VISIBILITY.

* THESE REPORTS ARE NOT UNDER NWS QUALITY CONTROL AND MAY NOT
  REPORT WEATHER SUCH AS PRECIPITATION AND FOG.

KYZ079-080-083-085-087-088-110-112-115-119-120-250300
...EASTERN KENTUCKY...

CITY           SKY/WX    TMP DP  RH WIND       PRES   REMARKS
JACKSON        CLEAR     69  47  45 CALM      30.15R
LONDON         CLEAR     64  53  67 CALM      30.14R
SOMERSET*      CLEAR     64  55  72 CALM      30.14R
MONTICELLO*    CLOUDY    66  61  84 CALM      30.14R
WILLIAMSBURG*  CLEAR     61  48  63 CALM      30.15R
MIDDLESBORO*   CLEAR     63  51  65 W5        30.16R
HARLAN APT*      N/A     63  54  72 CALM      30.17R
PIKE CO APT*     N/A     71  51  48 CALM      30.15R
MOREHEAD APT*  CLEAR     70  46  43 SW5       30.14R
ASHLAND*       CLEAR     63  55  77 CALM      30.10R
$$

KYZ035-036-041-042-044-050-067-078-099-250300
...CENTRAL KENTUCKY...

CITY           SKY/WX    TMP DP  RH WIND       PRES   REMARKS
MT STERLING*   CLEAR     61  55  82 S3        30.14S
FLEMING/MASON* CLEAR     69  50  50 S5        30.13R
DANVILLE*      CLEAR     64  55  72 CALM      30.12S
RICHMOND*      CLEAR     66  52  59 SE5       30.12S
LEXINGTON      CLEAR     69  51  52 SE6       30.11S
FRANKFORT      CLEAR     70  55  59 SE3       30.08S
LOUISVILLE     PTCLDY    77  55  46 SW7       30.07R
LEBANON*         N/A     70  57  64 SE7       30.10S
GLASGOW*       PTCLDY    68  60  74 CALM      30.10R
BOWLING GREEN  CLOUDY    73  60  63 CALM      30.08R
$$

KYZ091>093-OHZ055-061-077-WVZ005-015-034-035-042-250300
...SOUTHERN OHIO/WEST VIRGINIA...

CITY           SKY/WX    TMP DP  RH WIND       PRES   REMARKS
COVINGTON      CLEAR     68  51  54 S5        30.08S
COLUMBUS       PTCLDY    71  48  43 S5        30.08R
DAYTON         PTCLDY    71  45  39 S6        30.09R
WILMINGTON     CLEAR     65  48  54 S3        30.10R
HUNTINGTON       N/A     67  54  63 CALM      30.11R
CHARLESTON       N/A     66  54  65 CALM      30.13R
PINEVILLE*       N/A     57  50  77 MISG      30.22R
BECKLEY          N/A     60  47  61 SW5       30.20R
BLUEFIELD        N/A     63  43  48 CALM      30.22R
LOGAN CO APT*    N/A     68  50  52 CALM      30.15R
$$

VAZ002-007-008-TNZ017-027-036-066-071-250300
...SOUTHWEST VIRGINIA/EAST TENNESSEE...

CITY           SKY/WX    TMP DP  RH WIND       PRES   REMARKS
WISE*            N/A     61  43  51 CALM      30.23R
JONESVILLE*      N/A     61  54  77 CALM      30.18R
ABINGDON*        N/A     63  53  70 CALM      30.19R
BRISTOL        CLEAR     63  51  65 CALM      30.17R
SEVIERVILLE*   CLEAR     63  52  67 CALM      30.14R
KNOXVILLE      PTCLDY    74  51  44 CALM      30.13R
OAK RIDGE      CLEAR     70  57  63 CALM      30.14R
CROSSVILLE     CLOUDY    66  52  60 CALM      30.17R
NASHVILLE      PTCLDY    75  55  49 CALM      30.09S
$$

...KEY TO REMARKS...
VSB - VISIBILITY IN MILES
WCI - WIND CHILL INDEX
HX  - HEAT INDEX

$$




USA.gov is the U.S. government's official web portal to all federal, state and local government web resources and services.